Theta_e
316 316 317 317 318 318 319 319 319 319 318 318 318 317 316 314 311 310 309 309 309 309 310 313 316 317 321 324 325 326 327 328 330 328 329 330 330 330 329 328 332 334 335
314 314 316 316 317 317 317 318 319 317 317 318 319 319 318 315 313 311 311 310 310 311 310 310 311 315 317 323 325 326 328 329 329 329 329 328 328 328 328 327 326 332 334
311 311 312 312 313 314 315 315 315 316 316 316 317 319 319 317 314 313 312 311 311 312 312 310 310 311 316 318 322 325 326 328 329 329 329 328 328 329 327 327 327 328 331
310 310 310 310 310 311 311 311 311 312 312 312 313 314 317 317 314 313 312 312 312 313 312 312 312 312 313 317 321 323 325 325 324 325 326 325 325 326 326 326 327 328 331
308 308 308 308 308 308 308 308 308 309 310 310 311 311 312 313 313 313 312 312 312 313 312 312 312 310 310 314 317 321 322 323 324 323 323 323 324 324 326 326 327 328 327
305 305 305 304 304 304 304 304 304 304 305 305 306 310 310 311 311 312 312 312 312 313 313 311 310 308 309 311 315 316 319 321 321 322 324 323 323 324 325 325 325 321 323
302 302 302 302 302 302 302 303 303 304 304 305 305 306 307 308 309 310 311 312 312 311 310 309 309 312 313 314 315 316 316 316 318 319 321 322 324 324 324 323 323 319 317
301 301 301 300 301 301 301 301 302 302 303 303 304 305 306 306 307 309 311 311 310 309 308 308 310 311 312 314 315 316 317 316 316 316 318 321 323 324 324 325 322 317 316
299 299 299 299 299 299 300 299 299 299 299 300 301 302 304 306 307 307 308 309 308 308 308 308 310 311 311 315 316 317 318 317 317 317 317 321 324 325 325 320 316 314 314
297 297 297 297 297 298 297 298 298 298 298 299 299 300 300 304 305 305 305 306 306 306 306 307 310 310 314 313 315 314 315 317 318 318 320 323 324 320 318 314 312 313 314
296 296 296 296 297 296 296 296 297 296 298 298 297 298 300 302 302 304 305 306 306 307 308 310 312 314 315 317 316 319 320 319 318 319 321 319 316 316 317 315 312 313 314
295 295 294 295 295 295 295 295 296 296 297 297 297 298 298 299 300 302 302 305 306 307 309 311 310 310 315 315 315 318 317 317 317 315 315 315 316 316 316 314 313 314 315
293 294 294 293 294 294 294 295 295 296 296 297 297 298 300 303 304 305 305 305 306 306 306 310 309 309 316 316 315 320 318 315 314 315 315 314 316 315 313 314 315 315 316
292 292 292 292 293 293 294 295 295 296 296 297 297 299 301 302 306 305 305 305 305 305 307 309 309 312 314 313 315 315 314 314 315 315 314 314 313 314 314 315 316 316 317
291 291 292 292 293 293 294 295 295 296 296 296 297 299 301 303 304 304 304 304 306 309 309 310 310 309 309 310 311 314 315 316 315 315 315 314 314 314 315 315 315 318 321
291 291 291 292 292 293 293 294 295 295 295 296 296 297 298 299 301 305 306 307 308 309 309 310 311 311 311 312 314 315 315 317 316 316 316 315 314 314 315 315 317 320 322
289 289 290 291 291 292 293 294 295 295 296 295 298 298 300 301 302 304 304 305 308 309 310 310 312 313 313 313 314 316 317 318 318 317 316 316 315 315 315 315 319 321 323
288 289 290 291 292 293 293 293 294 295 296 296 299 300 301 302 302 302 302 303 306 308 309 310 313 314 314 315 314 317 317 317 317 317 316 316 316 315 315 318 320 321 323
289 290 291 293 294 294 295 294 293 295 296 296 300 301 302 302 302 301 301 302 304 305 306 309 314 314 315 317 316 317 317 317 317 316 316 316 315 315 316 319 320 320 321
290 291 293 295 298 298 296 294 294 295 295 297 299 301 301 301 300 300 300 301 302 303 304 306 314 314 315 316 315 316 315 316 317 317 315 314 313 314 317 319 320 319 319
290 292 295 300 298 296 295 295 295 295 297 299 300 301 301 300 300 300 300 301 303 303 303 305 314 315 316 316 317 317 317 317 316 312 311 312 314 316 316 319 320 320 321
291 294 297 299 297 295 296 295 296 297 298 298 299 301 301 301 300 300 300 301 303 303 304 304 309 315 316 317 317 317 317 313 311 314 316 319 319 320 320 321 321 321 321
290 292 294 295 297 297 296 296 296 296 297 297 298 300 301 301 302 300 301 302 302 303 304 305 309 314 316 316 317 315 313 312 312 313 315 317 319 320 320 321 322 322 321
288 290 291 292 293 296 297 296 296 297 297 298 298 299 301 303 303 302 301 302 302 304 306 307 311 313 316 315 312 312 311 312 315 315 313 313 315 317 319 320 321 320 321
286 287 288 289 290 292 294 297 297 297 298 299 299 299 300 301 303 304 304 304 304 306 307 308 311 311 311 311 314 315 315 313 311 310 310 310 312 316 319 321 320 319 318
284 285 286 286 287 288 290 291 293 294 298 300 300 301 302 301 302 305 305 307 306 307 307 309 311 310 311 313 313 313 312 310 310 310 310 310 312 316 319 320 319 314 311
Wind_Speed
21 21 22 23 22 22 23 25 26 26 26 27 27 26 24 22 19 18 15 13 12 11 13 12 15 16 19 21 23 27 26 26 14 25 26 22 23 23 18 12 12 21 28
19 20 23 24 24 24 24 26 28 29 30 32 33 33 30 28 26 24 22 19 18 16 14 14 17 18 18 19 22 26 26 27 24 16 22 28 28 28 27 22 15 16 20
10 10 10 10 11 14 18 22 25 29 31 31 33 35 36 35 33 31 28 26 24 23 20 18 19 21 23 23 22 22 23 26 25 21 18 28 31 35 27 22 19 16 15
14 15 16 17 17 18 19 20 22 24 26 28 32 36 38 39 37 35 33 31 29 29 27 25 23 23 28 26 23 26 26 24 25 20 20 17 18 22 22 17 20 14 18
16 17 19 21 22 23 24 25 26 27 28 29 30 33 36 39 39 38 38 36 34 32 29 27 26 26 32 34 27 25 26 26 24 21 19 20 21 18 15 21 16 16 18
20 24 27 30 31 32 34 34 35 37 38 38 37 35 35 36 36 39 40 38 35 32 30 28 28 32 34 36 36 37 31 28 27 25 21 20 22 22 20 16 9 7 3
28 29 27 28 27 27 28 29 29 30 31 32 33 34 35 38 38 38 40 39 35 32 30 29 29 26 27 31 34 38 42 45 44 33 29 27 23 25 25 13 18 15 10
27 27 27 26 27 26 25 25 26 26 26 25 27 29 31 33 34 36 34 35 33 32 33 30 29 29 30 33 33 36 36 38 40 45 40 36 31 24 22 23 27 17 8
25 26 25 23 23 24 22 23 24 22 22 24 25 28 27 26 30 30 29 31 29 28 28 28 30 32 36 39 41 38 38 40 35 38 35 34 31 25 22 23 21 12 4
26 27 26 25 24 23 24 25 24 22 24 23 24 25 27 28 28 34 36 30 28 28 32 33 33 34 35 37 40 41 41 42 37 29 34 30 25 21 27 25 18 10 4
27 27 25 23 23 25 26 25 25 24 21 22 25 26 26 26 28 29 29 30 25 25 22 24 24 23 29 32 33 23 35 41 39 35 31 26 24 20 20 15 13 14 11
25 26 26 25 24 24 25 26 24 22 22 21 23 24 27 32 32 31 31 31 29 24 22 22 21 24 28 22 5 15 29 40 37 31 28 26 23 25 18 13 12 14 13
26 26 25 26 25 24 23 23 22 21 20 19 19 19 21 18 21 24 26 25 24 24 27 18 25 26 23 19 8 27 28 29 27 31 23 22 29 22 15 12 12 12 13
27 26 25 25 25 24 23 22 21 19 18 17 17 16 17 19 17 20 15 15 18 23 20 18 21 21 17 13 10 21 19 22 25 25 24 25 19 15 14 11 7 5 6
25 25 24 24 23 23 22 22 20 22 21 18 18 17 12 15 17 13 13 14 15 10 11 11 14 8 4 11 13 19 26 27 26 27 25 19 15 12 8 5 5 6 3
24 23 22 23 23 21 21 22 21 25 27 27 26 26 25 25 22 9 2 6 8 6 7 2 10 7 12 11 14 17 20 22 20 18 17 16 13 10 8 5 5 2 1
24 25 25 23 22 20 19 16 13 15 17 19 18 20 20 20 16 9 2 11 1 3 7 8 13 10 13 16 19 23 16 17 15 13 11 11 10 6 3 3 6 3 1
25 26 25 25 23 21 18 16 13 13 6 12 12 13 12 9 10 4 2 8 9 5 5 12 8 9 16 20 20 19 15 15 13 11 9 8 5 4 3 4 5 4 2
24 23 23 23 24 23 18 13 12 10 8 11 12 7 10 9 10 9 6 3 5 7 12 13 11 12 20 22 18 15 15 17 14 12 9 6 6 5 4 5 5 4 3
22 23 24 22 16 14 7 6 7 5 6 8 6 1 4 4 10 8 6 4 6 6 15 15 9 11 21 20 19 18 16 16 13 10 11 9 5 5 4 5 6 5 4
21 21 24 15 14 11 7 4 2 3 7 3 8 1 3 6 9 10 4 4 10 13 14 12 7 11 17 21 18 16 12 10 11 12 9 7 5 4 7 7 5 6 5
18 18 17 12 12 11 8 5 3 3 4 4 8 5 2 3 3 4 5 8 12 13 13 11 6 16 16 17 15 12 14 17 15 10 9 8 5 3 3 2 2 7 7
18 17 16 15 13 11 9 9 7 5 7 5 7 11 3 3 6 2 8 9 9 11 11 9 5 14 18 16 14 19 20 16 13 11 8 7 4 2 1 3 4 7 12
19 18 17 16 17 14 9 8 8 6 7 7 5 10 12 10 6 6 3 6 8 8 6 4 7 13 20 23 21 15 15 16 16 13 8 6 2 4 5 6 9 11 17
21 20 19 18 17 17 16 12 9 8 9 9 6 7 8 8 9 7 6 4 3 3 3 5 12 19 20 20 20 21 19 17 13 7 4 5 5 8 9 9 11 12 12
23 22 21 21 20 20 17 15 14 12 11 10 7 7 8 7 6 7 7 7 6 3 0 7 10 14 17 18 16 16 15 11 6 2 2 5 7 9 10 9 9 11 12
Wind_Direction
254 263 268 262 258 257 252 249 247 249 248 246 248 244 243 241 241 237 238 243 250 266 285 285 286 287 282 274 266 255 247 242 248 261 260 256 250 251 252 274 279 255 244
291 287 279 278 277 272 264 261 260 262 260 253 251 246 244 244 243 239 240 241 243 246 258 271 280 280 275 274 262 247 243 237 232 244 247 244 239 248 266 263 272 268 245
352 349 344 338 318 298 288 282 280 280 278 274 266 260 253 248 244 242 241 242 240 239 241 248 265 275 269 264 258 254 245 238 231 232 239 249 251 253 253 248 250 279 254
334 329 324 324 319 313 308 303 298 294 291 287 278 268 258 255 254 249 245 242 242 242 243 247 252 264 271 260 248 242 240 234 231 235 239 248 253 251 248 250 243 271 256
327 322 319 316 314 312 307 302 299 297 294 292 287 282 274 261 255 252 249 244 242 243 246 252 257 267 276 269 252 241 235 235 242 241 244 257 254 247 228 229 215 253 241
322 316 314 312 310 306 303 300 297 293 289 286 283 281 277 269 261 258 254 247 245 242 247 259 271 279 278 272 265 252 242 238 241 243 248 240 244 234 227 210 184 171 223
313 308 302 299 293 290 288 287 283 282 282 278 276 276 273 274 275 268 260 248 241 244 253 262 269 262 263 263 265 260 253 251 247 246 250 249 242 221 216 187 193 187 194
298 294 293 290 287 286 284 280 281 282 283 283 278 274 273 273 273 273 263 244 248 257 262 267 265 267 266 257 256 252 248 250 251 248 242 249 243 233 240 238 204 195 179
292 291 292 289 287 286 281 282 282 280 280 279 278 276 275 276 273 268 257 255 259 265 270 274 271 270 271 261 250 245 247 245 247 241 240 232 237 233 242 209 173 162 176
296 296 296 293 288 287 288 286 283 279 280 278 280 278 277 276 271 267 270 269 270 272 274 270 264 271 268 278 263 259 246 235 223 216 210 215 227 204 194 195 181 171 144
296 294 291 290 289 288 286 284 282 280 280 280 279 278 275 269 271 268 268 268 261 261 255 266 267 278 280 294 277 250 242 200 177 174 181 176 173 171 197 191 193 200 176
295 294 293 292 288 286 281 279 276 275 277 275 278 275 274 271 273 270 266 265 263 256 264 270 280 297 303 300 269 145 128 135 142 145 145 163 155 197 199 211 217 211 215
298 295 292 289 286 283 278 276 275 270 263 268 271 272 268 270 270 267 269 259 257 262 269 262 286 295 294 306 56 118 127 133 153 142 147 160 181 188 186 192 201 219 235
297 294 294 292 290 283 275 267 263 264 263 265 267 272 282 285 263 276 269 255 256 259 260 273 287 299 286 261 203 166 168 158 144 143 152 161 161 156 174 179 186 213 240
296 295 292 288 283 280 274 269 262 260 256 263 271 275 301 301 284 283 271 254 254 243 247 281 313 287 228 199 172 174 172 156 145 148 146 139 142 154 158 178 204 185 177
297 296 292 290 287 281 278 279 269 265 267 262 271 267 277 277 294 272 17 325 239 173 236 280 286 214 187 175 159 162 165 155 145 138 137 141 149 155 162 173 177 150 69
296 295 293 290 285 280 275 270 278 284 258 280 265 262 262 268 289 207 56 23 74 204 219 278 263 212 181 175 170 166 163 162 154 148 149 161 154 154 151 160 160 134 43
295 290 286 285 283 278 270 265 262 270 276 295 277 271 227 242 178 210 354 354 13 1 321 285 264 210 187 187 184 160 162 163 163 168 165 163 158 146 166 173 173 146 156
300 297 295 292 289 282 272 259 255 268 270 282 306 223 215 221 250 255 261 324 328 5 327 309 244 213 193 191 186 159 161 163 162 152 154 162 163 180 199 177 173 192 191
309 305 308 304 320 338 290 260 275 252 276 279 301 175 184 230 252 247 218 226 301 332 311 305 219 194 179 171 151 140 140 142 146 158 151 149 181 210 208 194 194 188 213
315 315 322 330 340 348 352 344 319 271 274 9 29 300 268 252 255 270 243 225 271 285 300 326 218 186 163 156 150 148 152 156 155 146 146 163 204 228 205 195 203 234 225
328 332 337 341 358 7 11 24 15 6 54 15 1 29 243 248 296 238 217 212 250 269 287 311 272 202 184 170 171 175 161 152 149 148 147 139 132 136 129 170 227 256 241
353 352 356 3 4 11 28 41 49 29 23 12 6 14 78 27 14 204 195 209 246 270 292 304 248 190 194 191 184 158 154 164 164 152 139 123 109 88 332 279 267 256 236
8 9 8 9 11 9 25 46 48 38 18 8 9 23 39 40 34 56 157 198 233 254 286 324 165 163 164 161 159 155 144 139 133 119 105 78 29 286 281 273 265 265 242
16 15 15 15 16 14 16 22 31 25 23 24 21 13 24 39 46 50 68 136 200 275 333 30 145 151 152 154 149 142 140 133 127 112 64 24 287 276 277 273 269 271 242
22 22 20 18 20 18 18 18 19 21 16 17 14 22 35 39 43 56 67 67 130 180 125 83 134 152 153 152 148 142 137 138 136 74 352 298 277 272 277 278 262 230 193